Location: Dreilärchen
(47.9312°N, 8.6113°E)
Time: 23:59:39
(UTC+00:00)

CZ-2C R/B - Pass Details

Date: 26 May 2022
Orbit: 667 x 784 km, 98.3° (Epoch: 02 July)

Event Time Altitude Azimuth Distance (km) Brightness Sun altitude
Rises 02:31:46 0° 19° (NNE) 3,273 7.1 -9.0°
Reaches altitude 10° 02:34:13 10° 26° (NNE) 2,331 6.4 -8.7°
Maximum altitude 02:39:08 44° 98° (E) 1,051 3.6 -8.1°
Drops below altitude 10° 02:43:53 10° 170° (S) 2,257 4.6 -7.6°
Sets 02:46:14 0° 177° (S) 3,157 5.3 -7.3°
